Location: Fuglau
(48.6333°N, 15.5500°E)
Time: 18:08:21
(UTC+00:00)

Cosmos 2219 - Pass Details

Date: 27 February 2020
Orbit: 832 x 862 km, 71.1° (Epoch: 31 March)

Event Time Altitude Azimuth Distance (km) Brightness Sun altitude
Rises 18:41:52 0° 332° (NNW) 3,443 7.0 -21.2°
Reaches altitude 10° 18:44:19 10° 333° (NNW) 2,505 6.2 -21.6°
Maximum altitude 18:50:07 86° 62° (ENE) 871 3.1 -22.6°
Enters shadow 18:52:18 40° 149° (SSE) 1,244 3.7 -22.9°
